Terminal Aerodrome Forecast
Issued by NWS Rapid City, SD

Home | Current Version | Previous Version | Graphics & Text | Print | Product List | Glossary On
Versions: 1 2 3 4 5 6 7 8 9 10 11 12 13 14 15 16 17 18 19
000
FTUS43 KUNR 150500
TAFRAP
TAF
KRAP 150520Z 1506/1606 VRB05KT P6SM SCT200
     FM151500 20008KT P6SM SCT200
     FM151800 31015KT P6SM SCT150=

USA.gov is the U.S. government's official web portal to all federal, state and local government web resources and services.